Time,TemperatureF,DewpointF,PressureIn,WindDirection,WindDirectionDegrees,WindSpeedMPH,WindSpeedGustMPH,Humidity,HourlyPrecipIn,Conditions,Clouds,dailyrainin,SoftwareType,DateUTC
2013-05-19 00:00:00,73.2,64.8,29.80,SE,141,14.0,21.0,75,0.00,,,0.00,Wunderground v.1.15,2013-05-19 05:00:00,
2013-05-19 00:06:00,73.1,64.7,29.80,SE,139,14.0,21.0,75,0.00,,,0.00,Wunderground v.1.15,2013-05-19 05:06:00,
2013-05-19 00:12:00,72.9,64.5,29.80,SSE,165,12.0,21.0,75,0.00,,,0.00,Wunderground v.1.15,2013-05-19 05:12:00,
2013-05-19 00:18:00,72.8,64.8,29.80,ESE,118,13.0,21.0,76,0.00,,,0.00,Wunderground v.1.15,2013-05-19 05:18:00,
2013-05-19 00:24:00,72.7,64.7,29.80,SSE,160,13.0,21.0,76,0.00,,,0.00,Wunderground v.1.15,2013-05-19 05:24:00,
2013-05-19 00:30:00,72.6,65.0,29.81,South,183,14.0,14.0,77,0.00,,,0.00,Wunderground v.1.15,2013-05-19 05:30:00,
2013-05-19 00:36:00,72.5,64.9,29.80,SSE,163,16.0,21.0,77,0.00,,,0.00,Wunderground v.1.15,2013-05-19 05:36:00,
2013-05-19 00:42:00,72.3,64.7,29.80,South,187,14.0,21.0,77,0.00,,,0.00,Wunderground v.1.15,2013-05-19 05:42:00,
2013-05-19 00:48:00,72.2,65.0,29.80,SE,143,14.0,21.0,78,0.00,,,0.00,Wunderground v.1.15,2013-05-19 05:48:00,
2013-05-19 00:54:00,72.0,64.8,29.80,SSE,157,14.0,21.0,78,0.00,,,0.00,Wunderground v.1.15,2013-05-19 05:54:00,
2013-05-19 01:00:00,71.9,65.0,29.79,SE,145,14.0,14.0,79,0.00,,,0.00,Wunderground v.1.15,2013-05-19 06:00:00,
2013-05-19 01:06:00,71.8,64.9,29.79,SSW,193,14.0,21.0,79,0.00,,,0.00,Wunderground v.1.15,2013-05-19 06:06:00,
2013-05-19 01:12:00,71.6,65.1,29.78,SE,132,14.0,21.0,80,0.00,,,0.00,Wunderground v.1.15,2013-05-19 06:12:00,
2013-05-19 01:18:00,71.5,65.0,29.78,SSE,159,15.0,21.0,80,0.00,,,0.00,Wunderground v.1.15,2013-05-19 06:18:00,
2013-05-19 01:24:00,71.4,64.9,29.79,SSW,197,14.0,21.0,80,0.00,,,0.00,Wunderground v.1.15,2013-05-19 06:24:00,
2013-05-19 01:30:00,71.2,65.1,29.79,South,174,13.0,21.0,81,0.00,,,0.00,Wunderground v.1.15,2013-05-19 06:30:00,
2013-05-19 01:36:00,71.0,64.9,29.79,South,172,13.0,21.0,81,0.00,,,0.00,Wunderground v.1.15,2013-05-19 06:36:00,
2013-05-19 01:42:00,70.9,65.1,29.79,SW,219,14.0,14.0,82,0.00,,,0.00,Wunderground v.1.15,2013-05-19 06:42:00,
2013-05-19 01:48:00,70.8,65.0,29.79,SE,143,13.0,21.0,82,0.00,,,0.00,Wunderground v.1.15,2013-05-19 06:48:00,
2013-05-19 01:54:00,70.7,65.3,29.78,SSE,166,14.0,23.0,83,0.00,,,0.00,Wunderground v.1.15,2013-05-19 06:54:00,
2013-05-19 02:00:00,70.6,65.2,29.78,SSW,198,16.0,16.0,83,0.00,,,0.00,Wunderground v.1.15,2013-05-19 07:00:00,
2013-05-19 02:06:00,70.5,65.4,29.78,SSE,152,16.0,21.0,84,0.00,,,0.00,Wunderground v.1.15,2013-05-19 07:06:00,
2013-05-19 02:12:00,70.3,65.2,29.77,SSE,162,16.0,21.0,84,0.00,,,0.00,Wunderground v.1.15,2013-05-19 07:12:00,
2013-05-19 02:18:00,70.2,65.5,29.77,SSW,201,17.0,21.0,85,0.00,,,0.00,Wunderground v.1.15,2013-05-19 07:18:00,
2013-05-19 02:24:00,70.0,65.6,29.77,SE,146,17.0,21.0,86,0.00,,,0.00,Wunderground v.1.15,2013-05-19 07:24:00,
2013-05-19 02:30:00,69.8,65.4,29.77,SSE,156,16.0,21.0,86,0.00,,,0.00,Wunderground v.1.15,2013-05-19 07:30:00,
2013-05-19 02:36:00,69.7,65.7,29.77,SSW,205,15.0,21.0,87,0.00,,,0.00,Wunderground v.1.15,2013-05-19 07:36:00,
2013-05-19 02:42:00,69.5,65.8,29.77,SE,143,15.0,21.0,88,0.00,,,0.00,Wunderground v.1.15,2013-05-19 07:42:00,
2013-05-19 02:48:00,69.3,65.6,29.76,SSW,212,15.0,21.0,88,0.00,,,0.00,Wunderground v.1.15,2013-05-19 07:48:00,
2013-05-19 02:54:00,69.1,65.7,29.77,SE,137,14.0,21.0,89,0.00,,,0.00,Wunderground v.1.15,2013-05-19 07:54:00,
2013-05-19 03:00:00,68.9,65.8,29.77,SE,134,14.0,21.0,90,0.00,,,0.00,Wunderground v.1.15,2013-05-19 08:00:00,
2013-05-19 03:06:00,68.8,65.7,29.76,South,177,14.0,21.0,90,0.00,,,0.00,Wunderground v.1.15,2013-05-19 08:06:00,
2013-05-19 03:12:00,68.6,65.9,29.77,SSE,159,14.0,15.0,91,0.00,,,0.00,Wunderground v.1.15,2013-05-19 08:12:00,
2013-05-19 03:18:00,68.5,66.1,29.77,SSE,167,14.0,21.0,92,0.00,,,0.00,Wunderground v.1.15,2013-05-19 08:18:00,
2013-05-19 03:24:00,68.4,66.3,29.77,SSE,156,14.0,21.0,93,0.00,,,0.00,Wunderground v.1.15,2013-05-19 08:24:00,
2013-05-19 03:30:00,68.5,66.4,29.77,South,169,15.0,15.0,93,0.00,,,0.00,Wunderground v.1.15,2013-05-19 08:30:00,
2013-05-19 03:36:00,68.5,66.4,29.76,South,179,15.0,21.0,93,0.00,,,0.00,Wunderground v.1.15,2013-05-19 08:36:00,
2013-05-19 03:42:00,68.5,66.7,29.77,SSE,160,14.0,21.0,94,0.00,,,0.00,Wunderground v.1.15,2013-05-19 08:42:00,
2013-05-19 03:48:00,68.6,66.8,29.77,SSE,167,14.0,21.0,94,0.00,,,0.00,Wunderground v.1.15,2013-05-19 08:48:00,
2013-05-19 03:54:00,68.6,66.8,29.77,ESE,117,14.0,21.0,94,0.00,,,0.00,Wunderground v.1.15,2013-05-19 08:54:00,
2013-05-19 04:00:00,68.6,66.8,29.77,South,179,13.0,21.0,94,0.00,,,0.00,Wunderground v.1.15,2013-05-19 09:00:00,
2013-05-19 04:06:00,68.6,66.8,29.77,South,183,14.0,21.0,94,0.00,,,0.00,Wunderground v.1.15,2013-05-19 09:06:00,
2013-05-19 04:12:00,68.6,66.8,29.77,SSE,151,15.0,21.0,94,0.00,,,0.00,Wunderground v.1.15,2013-05-19 09:12:00,
2013-05-19 04:18:00,68.6,66.8,29.76,SSE,158,16.0,21.0,94,0.00,,,0.00,Wunderground v.1.15,2013-05-19 09:18:00,
2013-05-19 04:24:00,68.6,66.8,29.76,South,170,16.0,21.0,94,0.00,,,0.00,Wunderground v.1.15,2013-05-19 09:24:00,
2013-05-19 04:30:00,68.6,66.8,29.77,SSE,151,15.0,21.0,94,0.00,,,0.00,Wunderground v.1.15,2013-05-19 09:30:00,
2013-05-19 04:36:00,68.6,66.8,29.76,South,186,15.0,21.0,94,0.00,,,0.00,Wunderground v.1.15,2013-05-19 09:36:00,
2013-05-19 04:42:00,68.6,66.8,29.76,SSE,158,15.0,21.0,94,0.00,,,0.00,Wunderground v.1.15,2013-05-19 09:42:00,
2013-05-19 04:48:00,68.6,66.5,29.76,SSE,151,16.0,21.0,93,0.00,,,0.00,Wunderground v.1.15,2013-05-19 09:48:00,
2013-05-19 04:54:00,68.6,66.5,29.76,South,169,15.0,21.0,93,0.00,,,0.00,Wunderground v.1.15,2013-05-19 09:54:00,
2013-05-19 05:00:00,68.6,66.8,29.76,SSE,153,15.0,15.0,94,0.00,,,0.00,Wunderground v.1.15,2013-05-19 10:00:00,
2013-05-19 05:06:00,68.6,66.8,29.76,SE,124,15.0,22.0,94,0.00,,,0.00,Wunderground v.1.15,2013-05-19 10:06:00,
2013-05-19 05:12:00,68.6,66.8,29.76,South,184,14.0,19.0,94,0.00,,,0.00,Wunderground v.1.15,2013-05-19 10:12:00,
2013-05-19 05:18:00,68.6,66.8,29.76,SE,145,14.0,21.0,94,0.00,,,0.00,Wunderground v.1.15,2013-05-19 10:18:00,
2013-05-19 05:24:00,68.6,66.8,29.76,SSE,159,15.0,21.0,94,0.00,,,0.00,Wunderground v.1.15,2013-05-19 10:24:00,
2013-05-19 05:30:00,68.6,66.8,29.76,SE,136,15.0,21.0,94,0.00,,,0.00,Wunderground v.1.15,2013-05-19 10:30:00,
2013-05-19 05:36:00,68.6,66.5,29.75,South,181,16.0,23.0,93,0.00,,,0.00,Wunderground v.1.15,2013-05-19 10:36:00,
2013-05-19 05:42:00,68.6,66.5,29.75,SE,143,15.0,21.0,93,0.00,,,0.00,Wunderground v.1.15,2013-05-19 10:42:00,
2013-05-19 05:48:00,68.6,66.5,29.75,SSE,153,17.0,23.0,93,0.00,,,0.00,Wunderground v.1.15,2013-05-19 10:48:00,
2013-05-19 05:54:00,68.6,66.5,29.75,SE,141,17.0,21.0,93,0.00,,,0.00,Wunderground v.1.15,2013-05-19 10:54:00,
2013-05-19 06:00:00,68.6,66.8,29.75,SSW,193,15.0,16.0,94,0.00,,,0.00,Wunderground v.1.15,2013-05-19 11:00:00,
2013-05-19 06:06:00,68.6,66.5,29.75,SE,145,15.0,16.0,93,0.00,,,0.00,Wunderground v.1.15,2013-05-19 11:06:00,
2013-05-19 06:12:00,68.6,66.5,29.76,SSW,201,15.0,18.0,93,0.00,,,0.00,Wunderground v.1.15,2013-05-19 11:12:00,
2013-05-19 06:18:00,68.6,66.5,29.76,South,174,14.0,19.0,93,0.00,,,0.00,Wunderground v.1.15,2013-05-19 11:18:00,
2013-05-19 06:24:00,68.6,66.5,29.76,South,176,15.0,20.0,93,0.00,,,0.00,Wunderground v.1.15,2013-05-19 11:24:00,
2013-05-19 06:30:00,68.6,66.5,29.76,South,187,15.0,23.0,93,0.00,,,0.00,Wunderground v.1.15,2013-05-19 11:30:00,
2013-05-19 06:36:00,68.7,66.6,29.76,SSE,153,16.0,23.0,93,0.00,,,0.00,Wunderground v.1.15,2013-05-19 11:36:00,
2013-05-19 06:42:00,68.7,66.6,29.76,SE,126,16.0,16.0,93,0.00,,,0.00,Wunderground v.1.15,2013-05-19 11:42:00,
2013-05-19 06:48:00,68.7,66.6,29.77,SSE,150,15.0,18.0,93,0.00,,,0.00,Wunderground v.1.15,2013-05-19 11:48:00,
2013-05-19 06:54:00,68.7,66.6,29.77,SSE,155,15.0,23.0,93,0.00,,,0.00,Wunderground v.1.15,2013-05-19 11:54:00,
2013-05-19 07:00:00,68.8,66.7,29.76,South,180,16.0,24.0,93,0.00,,,0.00,Wunderground v.1.15,2013-05-19 12:00:00,
2013-05-19 07:06:00,68.8,66.7,29.76,SE,146,15.0,24.0,93,0.00,,,0.00,Wunderground v.1.15,2013-05-19 12:06:00,
2013-05-19 07:12:00,68.8,66.7,29.76,SE,145,15.0,24.0,93,0.00,,,0.00,Wunderground v.1.15,2013-05-19 12:12:00,
2013-05-19 07:18:00,68.9,66.8,29.77,SSE,159,16.0,24.0,93,0.00,,,0.00,Wunderground v.1.15,2013-05-19 12:18:00,
2013-05-19 07:24:00,69.0,66.9,29.77,SSE,156,15.0,24.0,93,0.00,,,0.00,Wunderground v.1.15,2013-05-19 12:24:00,
2013-05-19 07:30:00,69.1,66.7,29.77,SE,138,16.0,24.0,92,0.00,,,0.00,Wunderground v.1.15,2013-05-19 12:30:00,
2013-05-19 07:36:00,69.2,66.8,29.77,SSE,147,18.0,24.0,92,0.00,,,0.00,Wunderground v.1.15,2013-05-19 12:36:00,
2013-05-19 07:42:00,69.4,67.0,29.78,SSE,160,17.0,24.0,92,0.00,,,0.00,Wunderground v.1.15,2013-05-19 12:42:00,
2013-05-19 07:48:00,69.5,67.1,29.77,SSW,198,17.0,24.0,92,0.00,,,0.00,Wunderground v.1.15,2013-05-19 12:48:00,
2013-05-19 07:54:00,69.8,67.4,29.77,South,169,16.0,25.0,92,0.00,,,0.00,Wunderground v.1.15,2013-05-19 12:54:00,
2013-05-19 08:00:00,69.9,67.2,29.78,SE,141,16.0,16.0,91,0.00,,,0.00,Wunderground v.1.15,2013-05-19 13:00:00,
2013-05-19 08:06:00,70.0,67.3,29.78,SSE,162,15.0,24.0,91,0.00,,,0.00,Wunderground v.1.15,2013-05-19 13:06:00,
2013-05-19 08:12:00,70.2,67.4,29.77,SE,132,16.0,24.0,91,0.00,,,0.00,Wunderground v.1.15,2013-05-19 13:12:00,
2013-05-19 08:18:00,70.4,67.6,29.77,SE,134,16.0,24.0,91,0.00,,,0.00,Wunderground v.1.15,2013-05-19 13:18:00,
2013-05-19 08:24:00,70.6,67.8,29.78,SSE,159,16.0,24.0,91,0.00,,,0.00,Wunderground v.1.15,2013-05-19 13:24:00,
2013-05-19 08:30:00,70.8,67.7,29.77,South,177,17.0,17.0,90,0.00,,,0.00,Wunderground v.1.15,2013-05-19 13:30:00,
2013-05-19 08:36:00,71.0,67.9,29.77,SSE,153,18.0,24.0,90,0.00,,,0.00,Wunderground v.1.15,2013-05-19 13:36:00,
2013-05-19 08:42:00,71.3,67.9,29.77,SSE,152,18.0,24.0,89,0.00,,,0.00,Wunderground v.1.15,2013-05-19 13:42:00,
2013-05-19 08:48:00,71.6,68.2,29.77,SSE,165,18.0,24.0,89,0.00,,,0.00,Wunderground v.1.15,2013-05-19 13:48:00,
2013-05-19 08:54:00,71.7,68.3,29.78,SSW,200,19.0,24.0,89,0.00,,,0.00,Wunderground v.1.15,2013-05-19 13:54:00,
2013-05-19 09:00:00,71.8,68.1,29.77,SE,138,19.0,19.0,88,0.00,,,0.00,Wunderground v.1.15,2013-05-19 14:00:00,
2013-05-19 09:06:00,72.0,68.2,29.77,South,172,18.0,24.0,88,0.00,,,0.00,Wunderground v.1.15,2013-05-19 14:06:00,
2013-05-19 09:12:00,72.6,68.5,29.77,SE,138,17.0,25.0,87,0.00,,,0.00,Wunderground v.1.15,2013-05-19 14:12:00,
2013-05-19 09:18:00,72.8,68.7,29.78,SSW,201,17.0,25.0,87,0.00,,,0.00,Wunderground v.1.15,2013-05-19 14:18:00,
2013-05-19 09:24:00,72.8,68.7,29.77,SSE,150,18.0,24.0,87,0.00,,,0.00,Wunderground v.1.15,2013-05-19 14:24:00,
2013-05-19 09:30:00,73.7,69.2,29.78,SSW,210,17.0,17.0,86,0.00,,,0.00,Wunderground v.1.15,2013-05-19 14:30:00,
2013-05-19 09:36:00,74.2,69.4,29.78,SSE,162,15.0,24.0,85,0.00,,,0.00,Wunderground v.1.15,2013-05-19 14:36:00,
2013-05-19 09:42:00,74.6,69.4,29.78,SSE,155,15.0,21.0,84,0.00,,,0.00,Wunderground v.1.15,2013-05-19 14:42:00,
2013-05-19 09:48:00,75.0,69.5,29.78,SW,217,15.0,24.0,83,0.00,,,0.00,Wunderground v.1.15,2013-05-19 14:48:00,
2013-05-19 09:54:00,75.6,69.7,29.78,South,179,14.0,24.0,82,0.00,,,0.00,Wunderground v.1.15,2013-05-19 14:54:00,
2013-05-19 10:00:00,75.8,69.2,29.78,SSE,167,15.0,24.0,80,0.00,,,0.00,Wunderground v.1.15,2013-05-19 15:00:00,
2013-05-19 10:06:00,75.8,69.2,29.78,South,174,18.0,24.0,80,0.00,,,0.00,Wunderground v.1.15,2013-05-19 15:06:00,
2013-05-19 10:12:00,76.0,69.4,29.78,South,176,19.0,24.0,80,0.00,,,0.00,Wunderground v.1.15,2013-05-19 15:12:00,
2013-05-19 10:18:00,76.6,69.2,29.78,SE,139,17.0,24.0,78,0.00,,,0.00,Wunderground v.1.15,2013-05-19 15:18:00,
2013-05-19 10:24:00,77.1,69.7,29.78,SSE,162,16.0,24.0,78,0.00,,,0.00,Wunderground v.1.15,2013-05-19 15:24:00,
2013-05-19 10:30:00,77.4,70.0,29.78,SSE,166,15.0,15.0,78,0.00,,,0.00,Wunderground v.1.15,2013-05-19 15:30:00,
2013-05-19 10:36:00,78.1,69.5,29.78,South,176,15.0,24.0,75,0.00,,,0.00,Wunderground v.1.15,2013-05-19 15:36:00,
2013-05-19 10:42:00,77.8,69.2,29.78,SSE,167,17.0,24.0,75,0.00,,,0.00,Wunderground v.1.15,2013-05-19 15:42:00,
2013-05-19 10:48:00,77.7,69.1,29.78,ESE,123,16.0,24.0,75,0.00,,,0.00,Wunderground v.1.15,2013-05-19 15:48:00,
2013-05-19 10:54:00,77.8,69.6,29.78,SSW,197,15.0,24.0,76,0.00,,,0.00,Wunderground v.1.15,2013-05-19 15:54:00,
2013-05-19 11:00:00,78.4,69.4,29.78,South,174,16.0,24.0,74,0.00,,,0.00,Wunderground v.1.15,2013-05-19 16:00:00,
2013-05-19 11:06:00,78.7,69.7,29.77,SE,145,17.0,24.0,74,0.00,,,0.00,Wunderground v.1.15,2013-05-19 16:06:00,
2013-05-19 11:12:00,78.7,69.7,29.76,SSE,161,16.0,24.0,74,0.00,,,0.00,Wunderground v.1.15,2013-05-19 16:12:00,
2013-05-19 11:18:00,79.3,69.5,29.78,South,172,16.0,24.0,72,0.00,,,0.00,Wunderground v.1.15,2013-05-19 16:18:00,
2013-05-19 11:24:00,79.9,70.1,29.78,ENE,57,17.0,24.0,72,0.00,,,0.00,Wunderground v.1.15,2013-05-19 16:24:00,
2013-05-19 11:30:00,80.3,70.0,29.78,South,180,16.0,16.0,71,0.00,,,0.00,Wunderground v.1.15,2013-05-19 16:30:00,
2013-05-19 11:36:00,79.8,69.6,29.78,SSE,162,16.0,24.0,71,0.00,,,0.00,Wunderground v.1.15,2013-05-19 16:36:00,
2013-05-19 11:42:00,80.1,69.8,29.78,SE,128,15.0,24.0,71,0.00,,,0.00,Wunderground v.1.15,2013-05-19 16:42:00,
2013-05-19 11:48:00,79.6,69.8,29.78,SE,145,15.0,24.0,72,0.00,,,0.00,Wunderground v.1.15,2013-05-19 16:48:00,
2013-05-19 11:54:00,79.2,69.4,29.79,South,174,14.0,24.0,72,0.00,,,0.00,Wunderground v.1.15,2013-05-19 16:54:00,
2013-05-19 12:00:00,79.6,69.8,29.79,South,179,13.0,24.0,72,0.00,,,0.00,Wunderground v.1.15,2013-05-19 17:00:00,
2013-05-19 12:06:00,80.2,70.4,29.78,SE,145,14.0,24.0,72,0.00,,,0.00,Wunderground v.1.15,2013-05-19 17:06:00,
2013-05-19 12:12:00,80.9,70.6,29.79,SSW,197,12.0,24.0,71,0.00,,,0.00,Wunderground v.1.15,2013-05-19 17:12:00,
2013-05-19 12:18:00,81.0,70.3,29.79,SE,129,12.0,24.0,70,0.00,,,0.00,Wunderground v.1.15,2013-05-19 17:18:00,
2013-05-19 12:24:00,80.7,70.4,29.78,South,169,12.0,24.0,71,0.00,,,0.00,Wunderground v.1.15,2013-05-19 17:24:00,
2013-05-19 12:30:00,81.4,70.7,29.78,South,179,12.0,24.0,70,0.00,,,0.00,Wunderground v.1.15,2013-05-19 17:30:00,
2013-05-19 12:36:00,82.0,70.8,29.78,SSW,201,12.0,24.0,69,0.00,,,0.00,Wunderground v.1.15,2013-05-19 17:36:00,
2013-05-19 12:42:00,82.3,70.7,29.78,South,172,12.0,24.0,68,0.00,,,0.00,Wunderground v.1.15,2013-05-19 17:42:00,
2013-05-19 12:48:00,82.9,70.8,29.77,SE,129,14.0,24.0,67,0.00,,,0.00,Wunderground v.1.15,2013-05-19 17:48:00,
2013-05-19 12:54:00,83.3,70.3,29.77,SW,231,15.0,24.0,65,0.00,,,0.00,Wunderground v.1.15,2013-05-19 17:54:00,
2013-05-19 13:00:00,83.6,70.1,29.77,SSW,197,14.0,14.0,64,0.00,,,0.00,Wunderground v.1.15,2013-05-19 18:00:00,
2013-05-19 13:06:00,83.4,69.9,29.77,SSE,157,15.0,24.0,64,0.00,,,0.00,Wunderground v.1.15,2013-05-19 18:06:00,
2013-05-19 13:12:00,83.8,70.8,29.77,South,184,15.0,18.0,65,0.00,,,0.00,Wunderground v.1.15,2013-05-19 18:12:00,
2013-05-19 13:18:00,84.4,70.9,29.77,South,181,14.0,24.0,64,0.00,,,0.00,Wunderground v.1.15,2013-05-19 18:18:00,
2013-05-19 13:24:00,84.4,70.9,29.76,South,184,13.0,24.0,64,0.00,,,0.00,Wunderground v.1.15,2013-05-19 18:24:00,
2013-05-19 13:30:00,84.8,70.3,29.76,SSW,197,14.0,14.0,62,0.00,,,0.00,Wunderground v.1.15,2013-05-19 18:30:00,
2013-05-19 13:36:00,85.0,70.5,29.76,SSW,203,14.0,24.0,62,0.00,,,0.00,Wunderground v.1.15,2013-05-19 18:36:00,
2013-05-19 13:42:00,84.3,70.3,29.75,South,191,13.0,24.0,63,0.00,,,0.00,Wunderground v.1.15,2013-05-19 18:42:00,
2013-05-19 13:48:00,84.2,70.2,29.75,South,190,12.0,24.0,63,0.00,,,0.00,Wunderground v.1.15,2013-05-19 18:48:00,
2013-05-19 13:54:00,84.6,71.1,29.75,SSW,204,11.0,24.0,64,0.00,,,0.00,Wunderground v.1.15,2013-05-19 18:54:00,
2013-05-19 14:00:00,85.0,70.5,29.75,SSE,163,13.0,24.0,62,0.00,,,0.00,Wunderground v.1.15,2013-05-19 19:00:00,
2013-05-19 14:06:00,85.0,70.0,29.75,SE,124,15.0,24.0,61,0.00,,,0.00,Wunderground v.1.15,2013-05-19 19:06:00,
2013-05-19 14:12:00,84.8,70.8,29.74,SSE,150,15.0,24.0,63,0.00,,,0.00,Wunderground v.1.15,2013-05-19 19:12:00,
2013-05-19 14:18:00,84.6,70.1,29.74,South,177,14.0,24.0,62,0.00,,,0.00,Wunderground v.1.15,2013-05-19 19:18:00,
2013-05-19 14:24:00,84.9,70.4,29.73,ENE,76,13.0,24.0,62,0.00,,,0.00,Wunderground v.1.15,2013-05-19 19:24:00,
2013-05-19 14:30:00,84.9,70.4,29.73,SE,136,15.0,24.0,62,0.00,,,0.00,Wunderground v.1.15,2013-05-19 19:30:00,
2013-05-19 14:36:00,85.3,70.3,29.73,SSW,198,16.0,24.0,61,0.00,,,0.00,Wunderground v.1.15,2013-05-19 19:36:00,
2013-05-19 14:42:00,85.6,70.6,29.73,SE,143,14.0,24.0,61,0.00,,,0.00,Wunderground v.1.15,2013-05-19 19:42:00,
2013-05-19 14:48:00,86.0,70.5,29.72,SE,139,14.0,24.0,60,0.00,,,0.00,Wunderground v.1.15,2013-05-19 19:48:00,
2013-05-19 14:54:00,85.4,69.9,29.72,SE,134,15.0,24.0,60,0.00,,,0.00,Wunderground v.1.15,2013-05-19 19:54:00,
2013-05-19 15:00:00,85.6,70.1,29.72,SSE,162,16.0,24.0,60,0.00,,,0.00,Wunderground v.1.15,2013-05-19 20:00:00,
2013-05-19 15:06:00,85.4,69.9,29.72,SSE,153,17.0,24.0,60,0.00,,,0.00,Wunderground v.1.15,2013-05-19 20:06:00,
2013-05-19 15:12:00,86.1,71.1,29.71,SSW,198,15.0,24.0,61,0.00,,,0.00,Wunderground v.1.15,2013-05-19 20:12:00,
2013-05-19 15:18:00,85.9,70.4,29.72,SSE,160,15.0,24.0,60,0.00,,,0.00,Wunderground v.1.15,2013-05-19 20:18:00,
2013-05-19 15:24:00,86.3,70.3,29.72,South,184,14.0,24.0,59,0.00,,,0.00,Wunderground v.1.15,2013-05-19 20:24:00,
2013-05-19 15:30:00,86.7,70.7,29.71,SSW,198,14.0,14.0,59,0.00,,,0.00,Wunderground v.1.15,2013-05-19 20:30:00,
2013-05-19 15:36:00,86.0,70.5,29.71,SE,146,13.0,24.0,60,0.00,,,0.00,Wunderground v.1.15,2013-05-19 20:36:00,
2013-05-19 15:42:00,86.0,70.5,29.71,SSE,162,13.0,24.0,60,0.00,,,0.00,Wunderground v.1.15,2013-05-19 20:42:00,
2013-05-19 15:48:00,86.5,70.5,29.71,SSE,148,13.0,24.0,59,0.00,,,0.00,Wunderground v.1.15,2013-05-19 20:48:00,
2013-05-19 15:54:00,86.8,71.2,29.71,South,174,11.0,24.0,60,0.00,,,0.00,Wunderground v.1.15,2013-05-19 20:54:00,
2013-05-19 16:00:00,86.8,70.2,29.71,SSE,165,12.0,24.0,58,0.00,,,0.00,Wunderground v.1.15,2013-05-19 21:00:00,
2013-05-19 16:06:00,86.1,70.6,29.70,SSW,207,14.0,24.0,60,0.00,,,0.00,Wunderground v.1.15,2013-05-19 21:06:00,
2013-05-19 16:12:00,86.6,71.1,29.70,South,174,12.0,24.0,60,0.00,,,0.00,Wunderground v.1.15,2013-05-19 21:12:00,
2013-05-19 16:18:00,86.3,70.3,29.70,SSW,195,11.0,24.0,59,0.00,,,0.00,Wunderground v.1.15,2013-05-19 21:18:00,
2013-05-19 16:24:00,86.8,70.8,29.70,South,181,10.0,24.0,59,0.00,,,0.00,Wunderground v.1.15,2013-05-19 21:24:00,
2013-05-19 16:30:00,86.0,70.0,29.70,SSE,157,13.0,24.0,59,0.00,,,0.00,Wunderground v.1.15,2013-05-19 21:30:00,
2013-05-19 16:36:00,86.2,70.2,29.70,SSE,160,13.0,24.0,59,0.00,,,0.00,Wunderground v.1.15,2013-05-19 21:36:00,
2013-05-19 16:42:00,86.6,70.6,29.70,South,179,11.0,24.0,59,0.00,,,0.00,Wunderground v.1.15,2013-05-19 21:42:00,
2013-05-19 16:48:00,86.2,70.2,29.70,SSE,159,11.0,24.0,59,0.00,,,0.00,Wunderground v.1.15,2013-05-19 21:48:00,
2013-05-19 16:54:00,86.1,70.6,29.70,SSE,148,11.0,15.0,60,0.00,,,0.00,Wunderground v.1.15,2013-05-19 21:54:00,
2013-05-19 17:00:00,85.7,70.2,29.69,SSW,198,12.0,12.0,60,0.00,,,0.00,Wunderground v.1.15,2013-05-19 22:00:00,
2013-05-19 17:06:00,85.9,71.4,29.69,SSE,158,11.0,24.0,62,0.00,,,0.00,Wunderground v.1.15,2013-05-19 22:06:00,
2013-05-19 17:12:00,85.7,70.7,29.69,SSE,148,10.0,24.0,61,0.00,,,0.00,Wunderground v.1.15,2013-05-19 22:12:00,
2013-05-19 17:18:00,85.5,71.0,29.69,SE,138,10.0,24.0,62,0.00,,,0.00,Wunderground v.1.15,2013-05-19 22:18:00,
2013-05-19 17:24:00,85.7,71.2,29.69,ESE,122,9.0,24.0,62,0.00,,,0.00,Wunderground v.1.15,2013-05-19 22:24:00,
2013-05-19 17:30:00,85.6,71.1,29.69,South,183,9.0,24.0,62,0.00,,,0.00,Wunderground v.1.15,2013-05-19 22:30:00,
2013-05-19 17:36:00,86.2,70.2,29.69,SSE,165,11.0,24.0,59,0.00,,,0.00,Wunderground v.1.15,2013-05-19 22:36:00,
2013-05-19 17:42:00,86.7,71.2,29.69,SE,138,12.0,13.0,60,0.00,,,0.00,Wunderground v.1.15,2013-05-19 22:42:00,
2013-05-19 17:48:00,86.4,70.9,29.68,SSE,153,13.0,24.0,60,0.00,,,0.00,Wunderground v.1.15,2013-05-19 22:48:00,
2013-05-19 17:54:00,86.6,71.5,29.68,SE,143,13.0,24.0,61,0.00,,,0.00,Wunderground v.1.15,2013-05-19 22:54:00,
2013-05-19 18:00:00,86.6,71.1,29.68,SE,136,13.0,24.0,60,0.00,,,0.00,Wunderground v.1.15,2013-05-19 23:00:00,
2013-05-19 18:06:00,86.5,71.5,29.68,SSE,162,12.0,24.0,61,0.00,,,0.00,Wunderground v.1.15,2013-05-19 23:06:00,
2013-05-19 18:12:00,86.5,71.5,29.68,SE,145,11.0,24.0,61,0.00,,,0.00,Wunderground v.1.15,2013-05-19 23:12:00,
2013-05-19 18:18:00,86.6,71.1,29.68,SSE,151,11.0,24.0,60,0.00,,,0.00,Wunderground v.1.15,2013-05-19 23:18:00,
2013-05-19 18:24:00,86.1,70.6,29.68,SSE,160,12.0,24.0,60,0.00,,,0.00,Wunderground v.1.15,2013-05-19 23:24:00,
2013-05-19 18:30:00,85.9,70.9,29.68,SE,134,12.0,12.0,61,0.00,,,0.00,Wunderground v.1.15,2013-05-19 23:30:00,
2013-05-19 18:36:00,85.7,71.2,29.68,SSE,148,11.0,24.0,62,0.00,,,0.00,Wunderground v.1.15,2013-05-19 23:36:00,
2013-05-19 18:42:00,85.5,71.0,29.68,SSE,147,11.0,24.0,62,0.00,,,0.00,Wunderground v.1.15,2013-05-19 23:42:00,
2013-05-19 18:48:00,84.9,70.9,29.68,SSE,161,12.0,24.0,63,0.00,,,0.00,Wunderground v.1.15,2013-05-19 23:48:00,
2013-05-19 18:54:00,84.7,70.7,29.68,SSE,152,11.0,14.0,63,0.00,,,0.00,Wunderground v.1.15,2013-05-19 23:54:00,
2013-05-19 19:00:00,84.7,71.2,29.68,SE,126,9.0,24.0,64,0.00,,,0.00,Wunderground v.1.15,2013-05-20 00:00:00,
2013-05-19 19:06:00,84.5,71.0,29.68,SE,136,9.0,24.0,64,0.00,,,0.00,Wunderground v.1.15,2013-05-20 00:06:00,
2013-05-19 19:12:00,84.2,70.7,29.69,SE,129,11.0,11.0,64,0.00,,,0.00,Wunderground v.1.15,2013-05-20 00:12:00,
2013-05-19 19:18:00,84.1,70.6,29.69,SE,145,11.0,24.0,64,0.00,,,0.00,Wunderground v.1.15,2013-05-20 00:18:00,
2013-05-19 19:24:00,84.1,70.6,29.69,SE,128,9.0,24.0,64,0.00,,,0.00,Wunderground v.1.15,2013-05-20 00:24:00,
2013-05-19 19:30:00,84.1,70.6,29.69,SSE,158,10.0,24.0,64,0.00,,,0.00,Wunderground v.1.15,2013-05-20 00:30:00,
2013-05-19 19:36:00,83.9,70.9,29.69,SSE,152,10.0,24.0,65,0.00,,,0.00,Wunderground v.1.15,2013-05-20 00:36:00,
2013-05-19 19:42:00,83.4,70.8,29.69,SE,143,9.0,11.0,66,0.00,,,0.00,Wunderground v.1.15,2013-05-20 00:42:00,
2013-05-19 19:48:00,83.0,70.9,29.70,ESE,123,9.0,24.0,67,0.00,,,0.00,Wunderground v.1.15,2013-05-20 00:48:00,
2013-05-19 19:54:00,82.7,70.6,29.70,SSE,158,9.0,24.0,67,0.00,,,0.00,Wunderground v.1.15,2013-05-20 00:54:00,
2013-05-19 20:00:00,82.3,70.7,29.70,SE,146,9.0,9.0,68,0.00,,,0.00,Wunderground v.1.15,2013-05-20 01:00:00,
2013-05-19 20:06:00,81.9,70.7,29.70,SE,128,9.0,24.0,69,0.00,,,0.00,Wunderground v.1.15,2013-05-20 01:06:00,
2013-05-19 20:12:00,81.5,70.3,29.71,SSE,158,8.0,24.0,69,0.00,,,0.00,Wunderground v.1.15,2013-05-20 01:12:00,
2013-05-19 20:18:00,81.3,70.2,29.71,SE,133,9.0,24.0,69,0.00,,,0.00,Wunderground v.1.15,2013-05-20 01:18:00,
2013-05-19 20:24:00,81.0,69.9,29.71,SSE,156,10.0,24.0,69,0.00,,,0.00,Wunderground v.1.15,2013-05-20 01:24:00,
2013-05-19 20:30:00,80.6,69.5,29.71,SE,129,10.0,24.0,69,0.00,,,0.00,Wunderground v.1.15,2013-05-20 01:30:00,
2013-05-19 20:36:00,80.4,69.3,29.71,SSE,152,11.0,24.0,69,0.00,,,0.00,Wunderground v.1.15,2013-05-20 01:36:00,
2013-05-19 20:42:00,80.1,69.0,29.72,SE,135,11.0,24.0,69,0.00,,,0.00,Wunderground v.1.15,2013-05-20 01:42:00,
2013-05-19 20:48:00,79.9,68.8,29.72,ESE,113,11.0,24.0,69,0.00,,,0.00,Wunderground v.1.15,2013-05-20 01:48:00,
2013-05-19 20:54:00,79.6,68.5,29.72,SSE,162,11.0,24.0,69,0.00,,,0.00,Wunderground v.1.15,2013-05-20 01:54:00,
2013-05-19 21:00:00,79.3,68.2,29.72,South,188,11.0,24.0,69,0.00,,,0.00,Wunderground v.1.15,2013-05-20 02:00:00,
2013-05-19 21:06:00,79.0,68.0,29.72,SE,145,11.0,24.0,69,0.00,,,0.00,Wunderground v.1.15,2013-05-20 02:06:00,
2013-05-19 21:12:00,78.7,68.1,29.73,SE,142,11.0,17.0,70,0.00,,,0.00,Wunderground v.1.15,2013-05-20 02:12:00,
2013-05-19 21:18:00,78.5,67.9,29.73,SE,131,11.0,24.0,70,0.00,,,0.00,Wunderground v.1.15,2013-05-20 02:18:00,
2013-05-19 21:24:00,78.4,67.8,29.73,ESE,120,11.0,24.0,70,0.00,,,0.00,Wunderground v.1.15,2013-05-20 02:24:00,
2013-05-19 21:30:00,78.0,67.8,29.74,SSE,166,10.0,10.0,71,0.00,,,0.00,Wunderground v.1.15,2013-05-20 02:30:00,
2013-05-19 21:36:00,77.7,68.0,29.74,SSE,154,10.0,24.0,72,0.00,,,0.00,Wunderground v.1.15,2013-05-20 02:36:00,
2013-05-19 21:42:00,77.3,68.0,29.74,SE,132,10.0,24.0,73,0.00,,,0.00,Wunderground v.1.15,2013-05-20 02:42:00,
2013-05-19 21:48:00,77.1,68.2,29.74,SE,129,10.0,24.0,74,0.00,,,0.00,Wunderground v.1.15,2013-05-20 02:48:00,
2013-05-19 21:54:00,76.9,68.0,29.74,South,169,10.0,24.0,74,0.00,,,0.00,Wunderground v.1.15,2013-05-20 02:54:00,
2013-05-19 22:00:00,76.7,67.8,29.75,South,172,11.0,11.0,74,0.00,,,0.00,Wunderground v.1.15,2013-05-20 03:00:00,
2013-05-19 22:06:00,76.5,67.6,29.75,SE,127,11.0,24.0,74,0.00,,,0.00,Wunderground v.1.15,2013-05-20 03:06:00,
2013-05-19 22:12:00,76.3,67.4,29.75,SSE,148,12.0,24.0,74,0.00,,,0.00,Wunderground v.1.15,2013-05-20 03:12:00,
2013-05-19 22:18:00,76.1,67.6,29.75,SSE,163,11.0,24.0,75,0.00,,,0.00,Wunderground v.1.15,2013-05-20 03:18:00,
2013-05-19 22:24:00,75.9,67.4,29.76,SE,145,11.0,24.0,75,0.00,,,0.00,Wunderground v.1.15,2013-05-20 03:24:00,
2013-05-19 22:30:00,75.6,67.5,29.76,SE,130,11.0,24.0,76,0.00,,,0.00,Wunderground v.1.15,2013-05-20 03:30:00,
2013-05-19 22:36:00,75.4,67.7,29.76,ESE,117,11.0,24.0,77,0.00,,,0.00,Wunderground v.1.15,2013-05-20 03:36:00,
2013-05-19 22:42:00,75.1,67.8,29.76,SE,144,11.0,24.0,78,0.00,,,0.00,Wunderground v.1.15,2013-05-20 03:42:00,
2013-05-19 22:48:00,74.8,67.8,29.76,SE,143,10.0,24.0,79,0.00,,,0.00,Wunderground v.1.15,2013-05-20 03:48:00,
2013-05-19 22:54:00,74.6,68.0,29.77,SSE,153,11.0,13.0,80,0.00,,,0.00,Wunderground v.1.15,2013-05-20 03:54:00,
2013-05-19 23:00:00,74.4,67.8,29.77,SE,124,12.0,12.0,80,0.00,,,0.00,Wunderground v.1.15,2013-05-20 04:00:00,
2013-05-19 23:02:00,74.3,67.7,29.77,South,181,12.0,24.0,80,0.00,,,0.00,Wunderground v.1.15,2013-05-20 04:02:00,
2013-05-19 23:06:00,74.1,67.9,29.77,SE,132,12.0,24.0,81,0.00,,,0.00,Wunderground v.1.15,2013-05-20 04:06:00,
2013-05-19 23:08:00,74.0,67.8,29.77,South,179,11.0,24.0,81,0.00,,,0.00,Wunderground v.1.15,2013-05-20 04:08:00,
2013-05-19 23:10:00,73.9,67.7,29.77,SSE,162,12.0,12.0,81,0.00,,,0.00,Wunderground v.1.15,2013-05-20 04:10:00,
2013-05-19 23:16:00,73.7,67.9,29.77,SE,130,12.0,24.0,82,0.00,,,0.00,Wunderground v.1.15,2013-05-20 04:16:00,
2013-05-19 23:22:00,73.4,67.6,29.77,SE,143,13.0,24.0,82,0.00,,,0.00,Wunderground v.1.15,2013-05-20 04:22:00,
2013-05-19 23:26:00,73.3,67.8,29.77,South,174,12.0,24.0,83,0.00,,,0.00,Wunderground v.1.15,2013-05-20 04:26:00,
2013-05-19 23:32:00,73.0,67.5,29.77,South,170,12.0,24.0,83,0.00,,,0.00,Wunderground v.1.15,2013-05-20 04:32:00,
2013-05-19 23:38:00,72.8,67.7,29.77,SSE,162,13.0,24.0,84,0.00,,,0.00,Wunderground v.1.15,2013-05-20 04:38:00,
2013-05-19 23:44:00,72.7,67.6,29.77,SE,132,15.0,24.0,84,0.00,,,0.00,Wunderground v.1.15,2013-05-20 04:44:00,
2013-05-19 23:50:00,72.5,67.7,29.76,ESE,115,15.0,15.0,85,0.00,,,0.00,Wunderground v.1.15,2013-05-20 04:50:00,
2013-05-19 23:56:00,72.3,67.5,29.76,SSE,152,14.0,24.0,85,0.00,,,0.00,Wunderground v.1.15,2013-05-20 04:56:00,